Вернуться в каталог

DELTA 1 DEB

АктивенSSO
NORAD 7053·DEBRIS·🇺🇸 United States

Запущен Nov 6, 1973 с Vandenberg Space Force Base

Loading…

Ближайшие Пролёты (ближайшие 24 часа)

TLE

СвежийSource: Space-Track

Эпоха: Sep 14, 2026, 03:39 UTC

1 07053U 73086AV  26257.15232770 -.00000047  00000-0 -22619-4 0  9995
2 07053 101.7413 330.5655 0047559 134.4449 339.2273 12.48626154405344

Отслеживайте DELTA 1 DEB в реальном времени с AllMySat

Download on the App Store